Find Starlink 31266

NORAD ID: 59087 Int'l Des: 2024-041 Owner: SPXS Country: US Constellation: starlink operational
LEOCIRCULAR

Current View

Loading 3D Globe...

About Starlink 31266

Starlink 31266 (NORAD 59087) is a starlink constellation satellite (v2 mini) launched Feb 29, 2024 by SPXS of US. It operates in LEO, CIRCULAR orbit with a mass of 730.00 kg.

About Starlink 31266

Description loading...

Upcoming Passes

Passes for default location (London). Set your location on the main map for personalized predictions.

Altitude History

Loading altitude history...

Two-Line Element Set

1 59087U 24041P 26166.18252852 -.00000732 00000-0 -17064-4 0 9990
2 59087 42.9936 119.9591 0002293 273.9224 86.1365 15.27572223129236
Epoch: Jun 15, 2026 • Age: 15 hours

Current Status

Altitude 486.3 km
Velocity 7.63 km/s
Sub-Earth Point 36.64°N, 54.58°E
Launch Date Feb 29, 2024
Age 2.2 years
Type internet

Technical Details

Classification Payload
Mass 730.00 kg
Dry Mass 700.00 kg
Total Mass 730.00 kg
Length 0.30 m
Diameter 4.10 m
Span 29.00 m
Shape Box + pan
Manufacturer SPXS
Bus Type Starlink V2M
Phase Status In Orbit
Owner/State SPXS/US

Most Searched